#timestamp,LO_Frequency,Hit 
1504850415.3,286046995.5,N
1504850435.1,286047000.7,N
1504850455.9,286046997.2,N
1504850475.7,286046995.5,N
1504850495.5,286046992.1,N
1504850515.4,286046988.7,N
1504850535.2,286046987.0,N
1504850555.0,286046985.4,P
1504850555.9,286046985.4,N
1504850575.8,286046990.0,N
1504850595.6,286046988.1,N
1504850615.4,286046987.9,N
1504850635.3,286046989.2,N
1504850655.1,286046991.5,N
1504850656.0,286046991.5,N
1504850675.8,286046988.9,P
1504850695.7,286047000.9,N
1504850715.5,286047000.9,N
1504850735.3,286046998.9,N
1504850755.2,286046999.2,N
1504850775.9,286046998.6,N
1504850795.7,286047001.5,N
1504850815.6,286047002.5,N
1504850835.4,286047000.7,N
1504850855.2,286046997.6,N
1504850875.0,286047001.2,N
1504850875.9,286047001.2,N
1504850895.8,286047000.8,N
1504850915.6,286047000.8,N
1504850935.4,286046996.6,N
1504850955.3,286046996.8,N
1504850975.1,286046999.5,N
1504850995.8,286047001.8,N
1504851015.7,286047004.4,N
1504851035.5,286047000.4,N
1504851055.3,286047000.4,N
1504851075.2,286047001.9,N
1504851095.9,286047004.4,N
1504851115.7,286046999.7,N
1504851135.6,286046998.3,N
1504851155.4,286046999.5,N
1504851175.2,286046997.7,N
1504851195.0,286046997.1,N
1504851195.9,286046997.1,N
1504851215.8,286046995.0,N
1504851235.6,286046999.1,N
1504851255.4,286046996.9,N
1504851275.3,286046997.0,N
1504851295.1,286046997.0,N
1504851315.8,286046993.9,N
1504851335.7,286046996.4,N
1504851355.5,286046997.5,N
1504851375.3,286046997.0,N
1504851395.2,286046998.0,N
1504851415.9,286046995.9,N
1504851435.7,286046994.7,N
1504851455.6,286046990.4,P
1504851475.4,286046992.6,N
1504851495.2,286046996.2,N
1504851515.1,286046998.4,N
1504851516.0,286046998.4,N
1504851535.8,286046998.9,N
1504851555.6,286046997.5,N
1504851575.5,286046997.7,N
1504851595.3,286046994.4,N
1504851615.1,286046994.6,N
1504851635.8,286046992.6,N
1504851655.7,286046991.7,P
1504851675.5,286046994.9,N
1504851695.4,286046997.8,N
1504851715.2,286046994.9,N
1504851735.0,286046997.4,N
1504851735.9,286046997.4,N
1504851755.7,286046997.3,N
1504851775.6,286046996.3,N
1504851795.4,286046997.9,N
1504851815.2,286046997.3,N
1504851835.1,286046997.1,N
1504851836.0,286046997.1,N
1504851855.8,286046996.9,N
1504851875.6,286046996.2,N
1504851895.5,286046995.2,P
1504851915.3,286047001.1,N
1504851935.1,286046999.4,N
1504851955.9,286046996.5,N
1504851975.7,286046996.6,N
1504851995.5,286046995.8,N
1504852015.4,286046997.4,N
1504852035.2,286046996.2,N
1504852055.0,286046991.7,P
1504852055.9,286046991.7,P
1504852075.8,286046997.4,N
1504852095.6,286046997.1,N
1504852115.4,286046998.4,N
1504852135.3,286046996.5,N
1504852155.1,286047001.6,N
1504852175.8,286047000.7,N
1504852195.7,286046997.8,N
1504852215.5,286046993.8,N
1504852235.3,286046996.2,N
1504852255.2,286046997.3,N
1504852275.9,286046999.1,N
1504852295.7,286046999.2,N
1504852315.5,286046996.6,N
1504852335.4,286046998.1,N
1504852355.2,286047000.3,N
1504852375.0,286047004.3,N
1504852375.9,286047004.3,N
1504852395.8,286047008.5,N
1504852415.6,286047004.9,N
1504852435.4,286047000.4,N
1504852455.3,286046999.0,N
1504852475.1,286047000.9,N
1504852476.0,286047000.9,N
1504852495.8,286046998.5,N
1504852515.7,286046998.6,N
1504852535.5,286046999.7,N
1504852555.3,286047003.5,N
1504852575.2,286047001.3,N
1504852595.9,286047004.3,N
1504852615.7,286046998.1,N
1504852635.5,286046999.6,N
1504852655.4,286046996.2,N
1504852675.2,286046995.2,N
1504852695.0,286046995.0,N
1504852695.9,286046995.0,N
1504852715.8,286046996.5,N
1504852735.6,286046995.5,N
1504852755.4,286047001.0,N
1504852775.3,286047000.9,N
1504852795.1,286046998.3,N
1504852815.8,286047001.1,N
1504852835.7,286046999.8,N
1504852855.5,286046998.7,N
1504852875.3,286046998.8,N
1504852895.2,286046997.7,N
1504852915.9,286046995.3,N
1504852935.7,286046993.5,N
1504852955.5,286046995.0,N
1504852975.4,286046999.6,N
1504852995.2,286046998.6,N
1504853015.0,286047002.7,N
1504853015.9,286047002.7,N
1504853035.8,286046999.0,N
1504853055.6,286046999.8,N
1504853075.4,286047002.6,N
1504853095.3,286047001.9,N
1504853115.1,286047001.7,N
1504853135.8,286047002.0,N
1504853155.7,286047004.2,N
1504853175.5,286047002.0,N
1504853195.3,286047002.7,N
1504853215.2,286047003.7,N
1504853235.9,286047001.7,N
1504853255.7,286047003.2,N
1504853275.6,286047003.2,N
1504853295.4,286047003.5,N
1504853315.2,286047003.1,N
1504853335.0,286047007.1,N
1504853336.0,286047007.1,N
1504853355.8,286047002.1,N
1504853375.6,286047000.7,N
1504853395.4,286047000.9,N
1504853415.3,286047005.3,N
1504853435.1,286047006.2,N
1504853455.8,286047001.3,N
1504853475.7,286047002.4,N
1504853495.5,286047002.3,N
1504853515.3,286047001.1,N
1504853535.2,286046998.1,N
1504853555.9,286046998.5,N
1504853575.7,286047001.0,N
1504853595.6,286046999.3,N
1504853615.4,286046998.6,N
1504853635.2,286046996.5,N
1504853655.1,286046997.2,N
1504853656.0,286046997.2,N
1504853675.8,286046995.9,N
1504853695.6,286046995.8,N
1504853715.4,286046996.1,N
1504853735.3,286046993.8,N
1504853755.1,286046992.7,N
1504853775.8,286046996.0,N
1504853795.7,286046995.3,N
1504853815.5,286046995.9,N
1504853835.3,286046993.3,N
1504853855.2,286046997.0,N
1504853875.9,286046995.6,N
1504853895.7,286046999.6,N
1504853915.6,286046997.3,N
1504853935.4,286046999.3,N
1504853955.2,286046999.1,N
1504853975.1,286046996.5,N
1504853976.0,286046996.5,N
1504853995.8,286046996.9,N
